Marshfield, WI

7:26 AM CST on January 16, 2017 (GMT -0600)
Marshfield Municipal

Weather History for KMFI - October, 2012

Change the Weather History Date:

Thursday, October 11, 2012

  Actual Average Record
Temperature  
Mean Temperature 39 °F -  
Max Temperature 51 °F 59 °F 82 °F (1928)
Min Temperature 27 °F 36 °F 18 °F (1987)
Degree Days  
Heating Degree Days 26    
Moisture  
Dew Point 25 °F    
Average Humidity 53    
Maximum Humidity 76    
Minimum Humidity 27    
Precipitation  
Precipitation 0.00 in - - ()
Sea Level Pressure  
Sea Level Pressure 30.08 in    
Wind  
Wind Speed 13 mph (NW)    
Max Wind Speed 21 mph    
Max Gust Speed 26 mph    
Visibility 10 miles    
Events Rain    
Averages and records for this station are not official NWS values.
T = Trace of Precipitation, MM = Missing Value Source: NWS Daily Summary

Daily Weather History Graph

Daily Weather History Graph

Search for Another Location

Airport or City:

Trip Planner

Search our weather history database for the weather conditions in past years. The results will help you decide how hot, cold, wet, or windy it might be!

Date:

Astronomy

Oct. 11, 2012 Rise Set
Actual Time 7:11 AM CDT 6:22 PM CDT
Civil Twilight 6:42 AM CDT 6:51 PM CDT
Nautical Twilight 6:08 AM CDT 7:25 PM CDT
Astronomical Twilight 5:34 AM CDT 7:59 PM CDT
Moon 2:40 AM CDT (10/11) 4:06 PM CDT (10/11)
Length of Visible Light 12h 09m
Length of Day
11h 10m
Waning Crescent, 18% of the Moon is Illuminated
Oct 11
Waning Crescent
Oct 15
New
Oct 21
First Quarter
Oct 29
Full
Nov 6
Last Quarter

Hourly Weather History & Observations

Time (CDT) Temp. Windchill Dew Point Humidity Pressure Visibility Wind Dir Wind Speed Gust Speed Precip Events Conditions
12:54 AM 42.1 °F 36.1 °F 26.1 °F 53% 29.98 in 10.0 mi South 10.4 mph - N/A   Overcast
1:54 AM 42.1 °F 34.2 °F 26.1 °F 53% 29.93 in 10.0 mi South 16.1 mph - N/A   Overcast
2:54 AM 43.0 °F 35.4 °F 26.1 °F 51% 29.88 in 10.0 mi South 16.1 mph 24.2 mph 0.00 in   Overcast
3:54 AM 43.0 °F 36.4 °F 28.0 °F 56% 29.88 in 10.0 mi SW 12.7 mph 21.9 mph 0.00 in Rain Light Rain
4:54 AM 46.0 °F 41.0 °F 27.0 °F 47% 29.88 in 10.0 mi SW 10.4 mph 18.4 mph 0.00 in   Overcast
5:54 AM 45.0 °F 39.7 °F 28.9 °F 53% 29.87 in 10.0 mi SW 10.4 mph - 0.00 in   Overcast
6:54 AM 46.0 °F 41.4 °F 30.0 °F 54% 29.89 in 10.0 mi WSW 9.2 mph 19.6 mph N/A   Scattered Clouds
7:54 AM 46.9 °F - 30.9 °F 54% 29.92 in 10.0 mi West 8.1 mph - N/A   Mostly Cloudy
8:54 AM 46.9 °F - 32.0 °F 56% 29.96 in 10.0 mi NW 20.7 mph 26.5 mph N/A   Overcast
9:54 AM 44.1 °F 35.9 °F 30.9 °F 60% 30.01 in 10.0 mi NNW 19.6 mph 25.3 mph N/A   Overcast
10:54 AM 42.1 °F 36.1 °F 35.1 °F 76% 30.05 in 10.0 mi NNW 10.4 mph - 0.00 in Rain Light Rain
11:54 AM 44.1 °F 37.4 °F 34.0 °F 68% 30.07 in 10.0 mi North 13.8 mph 23.0 mph 0.00 in   Overcast
12:54 PM 46.9 °F - 30.9 °F 54% 30.08 in 10.0 mi NW 17.3 mph 23.0 mph N/A   Overcast
1:54 PM 50.0 °F - 27.0 °F 41% 30.09 in 10.0 mi NW 11.5 mph - N/A   Partly Cloudy
2:54 PM 48.9 °F - 23.0 °F 36% 30.11 in 10.0 mi NNW 16.1 mph - N/A   Clear
3:54 PM 50.0 °F - 17.1 °F 27% 30.12 in 10.0 mi NNW 19.6 mph 26.5 mph N/A   Clear
4:54 PM 48.9 °F - 16.0 °F 27% 30.14 in 10.0 mi WNW 12.7 mph - N/A   Clear
5:54 PM 43.0 °F 35.7 °F 18.0 °F 37% 30.18 in 10.0 mi NNW 15.0 mph 20.7 mph N/A   Clear
6:54 PM 39.0 °F 32.3 °F 19.0 °F 45% 30.22 in 10.0 mi NNW 10.4 mph - N/A   Clear
7:54 PM 33.1 °F 26.1 °F 19.9 °F 59% 30.25 in 10.0 mi NNW 8.1 mph - N/A   Clear
8:54 PM 36.0 °F 30.3 °F 21.0 °F 55% 30.29 in 10.0 mi North 6.9 mph - N/A   Clear
9:54 PM 34.0 °F 28.0 °F 21.0 °F 59% 30.32 in 10.0 mi North 6.9 mph - N/A   Clear
10:54 PM 28.0 °F 21.7 °F 19.9 °F 72% 30.34 in 10.0 mi NNW 5.8 mph - N/A   Clear
11:54 PM 27.0 °F 18.7 °F 19.9 °F 75% 30.37 in 10.0 mi NNW 8.1 mph - N/A   Clear